DAL2321 KLGA-KFLL

Flight info

Callsign DAL2321
Flight time 2h 32m
Altitude 36000
Route WHITE Q409 CRPLR KOOKI Q161 CHIEZ Y291 MAJIK CUUDA3
Aircraft A321/M-SDE3FGHIRWY/LB1

Departure

Time 2026-05-04 23:21
Airport LaGuardia Airport (KLGA)

Arrival

Time 2026-05-05 01:53
Airport Fort Lauderdale Hollywood International Airport (KFLL)
Time Latitude Longitude Altitude Speed Heading
2026-05-04 22:25 40.77174 -73.86341 19 ft 0 kts 132°
2026-05-04 23:10 40.77180 -73.86350 20 ft 4 kts 126°
2026-05-04 23:10 40.77189 -73.86380 20 ft 4 kts 82°
2026-05-04 23:11 40.77189 -73.86384 20 ft 4 kts 76°
2026-05-04 23:11 40.77185 -73.86399 23 ft 4 kts 51°
2026-05-04 23:11 40.77180 -73.86407 21 ft 0 kts 42°
2026-05-04 23:13 40.77193 -73.86391 20 ft 3 kts 42°
2026-05-04 23:14 40.77211 -73.86370 21 ft 3 kts 42°
2026-05-04 23:14 40.77234 -73.86342 22 ft 6 kts 42°
2026-05-04 23:14 40.77286 -73.86291 14 ft 15 kts 33°
2026-05-04 23:14 40.77371 -73.86289 13 ft 12 kts 315°
2026-05-04 23:15 40.77412 -73.86374 12 ft 10 kts 302°
2026-05-04 23:15 40.77449 -73.86452 12 ft 10 kts 302°
2026-05-04 23:15 40.77486 -73.86531 12 ft 10 kts 302°
2026-05-04 23:15 40.77521 -73.86604 12 ft 9 kts 302°
2026-05-04 23:16 40.77562 -73.86690 12 ft 16 kts 302°
2026-05-04 23:16 40.77625 -73.86821 12 ft 17 kts 302°
2026-05-04 23:16 40.77684 -73.86945 12 ft 15 kts 302°
2026-05-04 23:16 40.77737 -73.87055 13 ft 13 kts 302°
2026-05-04 23:17 40.77782 -73.87150 13 ft 11 kts 302°
2026-05-04 23:17 40.77825 -73.87242 13 ft 14 kts 302°
2026-05-04 23:17 40.77886 -73.87370 15 ft 13 kts 302°
2026-05-04 23:17 40.77910 -73.87419 15 ft 4 kts 302°
2026-05-04 23:18 40.77917 -73.87434 15 ft 1 kts 302°
2026-05-04 23:18 40.77921 -73.87443 16 ft 6 kts 302°
2026-05-04 23:18 40.77966 -73.87534 16 ft 15 kts 302°
2026-05-04 23:18 40.78021 -73.87653 15 ft 15 kts 302°
2026-05-04 23:19 40.78090 -73.87797 17 ft 19 kts 302°
2026-05-04 23:19 40.78171 -73.87865 13 ft 13 kts 355°
2026-05-04 23:19 40.78206 -73.87804 13 ft 8 kts 120°
2026-05-04 23:19 40.78203 -73.87797 14 ft 0 kts 122°
2026-05-04 23:20 40.78192 -73.87773 12 ft 15 kts 122°
2026-05-04 23:20 40.77979 -73.87328 15 ft 95 kts 122°
2026-05-04 23:20 40.77514 -73.86359 51 ft 147 kts 126°
2026-05-04 23:21 40.76987 -73.85227 732 ft 142 kts 127°
2026-05-04 23:21 40.76301 -73.84333 1345 ft 138 kts 156°
2026-05-04 23:21 40.75414 -73.83917 1919 ft 137 kts 173°
2026-05-04 23:21 40.74430 -73.83611 2175 ft 155 kts 173°
2026-05-04 23:22 40.73288 -73.83256 2327 ft 178 kts 171°
2026-05-04 23:22 40.72028 -73.82856 2462 ft 199 kts 171°
2026-05-04 23:22 40.70596 -73.82780 2638 ft 214 kts 195°
2026-05-04 23:22 40.69116 -73.83211 3209 ft 220 kts 195°
2026-05-04 23:23 40.67618 -73.83647 3952 ft 220 kts 202°
2026-05-04 23:23 40.66268 -73.84614 4579 ft 225 kts 219°
2026-05-04 23:23 40.64928 -73.85814 5019 ft 245 kts 211°
2026-05-04 23:23 40.63365 -73.86860 5622 ft 255 kts 208°
2026-05-04 23:24 40.61743 -73.87857 6374 ft 260 kts 208°
2026-05-04 23:24 40.60082 -73.88853 7085 ft 265 kts 208°
2026-05-04 23:24 40.58390 -73.89872 7807 ft 269 kts 208°
2026-05-04 23:24 40.56672 -73.90914 8526 ft 274 kts 209°
2026-05-04 23:25 40.54906 -73.91991 9259 ft 279 kts 210°
2026-05-04 23:25 40.53156 -73.93064 9940 ft 284 kts 210°
2026-05-04 23:25 40.51326 -73.94188 10298 ft 300 kts 210°
2026-05-04 23:25 40.49364 -73.95406 10455 ft 323 kts 210°
2026-05-04 23:26 40.47297 -73.96685 10913 ft 333 kts 210°
2026-05-04 23:26 40.45189 -73.97978 11565 ft 337 kts 210°
2026-05-04 23:26 40.43057 -73.99281 12249 ft 340 kts 210°
2026-05-04 23:26 40.40902 -74.00599 12940 ft 343 kts 210°
2026-05-04 23:27 40.38728 -74.01930 13650 ft 345 kts 210°
2026-05-04 23:27 40.36548 -74.03264 14283 ft 348 kts 210°
2026-05-04 23:27 40.34348 -74.04612 14897 ft 350 kts 210°
2026-05-04 23:27 40.32132 -74.05971 15504 ft 353 kts 210°
2026-05-04 23:28 40.29893 -74.07343 16101 ft 357 kts 210°
2026-05-04 23:28 40.27632 -74.08728 16689 ft 360 kts 210°
2026-05-04 23:28 40.25353 -74.10123 17279 ft 363 kts 210°
2026-05-04 23:28 40.23825 -74.11057 17647 ft 366 kts 210°
2026-05-04 23:29 40.21477 -74.12491 18197 ft 370 kts 210°
2026-05-04 23:29 40.19132 -74.13919 18678 ft 374 kts 210°
2026-05-04 23:29 40.16792 -74.15343 19156 ft 377 kts 210°
2026-05-04 23:29 40.14406 -74.16796 19630 ft 380 kts 210°
2026-05-04 23:30 40.11994 -74.18262 20107 ft 384 kts 209°
2026-05-04 23:30 40.09555 -74.19743 20575 ft 387 kts 209°
2026-05-04 23:30 40.07106 -74.21227 21046 ft 390 kts 209°
2026-05-04 23:30 40.04630 -74.22727 21493 ft 393 kts 209°
2026-05-04 23:31 40.02135 -74.24242 21936 ft 396 kts 210°
2026-05-04 23:31 39.99748 -74.26019 22384 ft 395 kts 219°
2026-05-04 23:31 39.97530 -74.28141 22827 ft 397 kts 220°
2026-05-04 23:31 39.95295 -74.30287 23267 ft 400 kts 220°
2026-05-04 23:32 39.93035 -74.32439 23669 ft 404 kts 220°
2026-05-04 23:32 39.90759 -74.34600 24020 ft 407 kts 220°
2026-05-04 23:32 39.88468 -74.36775 24390 ft 409 kts 220°
2026-05-04 23:32 39.86161 -74.38965 24769 ft 411 kts 220°
2026-05-04 23:33 39.83850 -74.41161 25128 ft 413 kts 220°
2026-05-04 23:33 39.81573 -74.43456 25493 ft 413 kts 226°
2026-05-04 23:33 39.79537 -74.46083 25853 ft 413 kts 229°
2026-05-04 23:33 39.77523 -74.48767 26212 ft 416 kts 229°
2026-05-04 23:34 39.75518 -74.51430 26564 ft 418 kts 229°
2026-05-04 23:34 39.73448 -74.54173 26915 ft 421 kts 229°
2026-05-04 23:34 39.71414 -74.56862 27273 ft 423 kts 229°
2026-05-04 23:34 39.69345 -74.59596 27627 ft 425 kts 229°
2026-05-04 23:35 39.67265 -74.62343 27970 ft 427 kts 229°
2026-05-04 23:35 39.65175 -74.65105 28306 ft 429 kts 229°
2026-05-04 23:35 39.63082 -74.67875 28649 ft 432 kts 229°
2026-05-04 23:35 39.60967 -74.70671 28968 ft 434 kts 229°
2026-05-04 23:36 39.58849 -74.73462 29290 ft 436 kts 229°
2026-05-04 23:36 39.56710 -74.76273 29588 ft 438 kts 229°
2026-05-04 23:36 39.54561 -74.79092 29878 ft 441 kts 229°
2026-05-04 23:36 39.52399 -74.81927 30144 ft 443 kts 229°
2026-05-04 23:37 39.50229 -74.84768 30397 ft 445 kts 229°
2026-05-04 23:37 39.48050 -74.87623 30649 ft 447 kts 229°
2026-05-04 23:37 39.45868 -74.90488 30937 ft 447 kts 229°
2026-05-04 23:37 39.43685 -74.93350 31346 ft 446 kts 229°
2026-05-04 23:38 39.41503 -74.96203 31740 ft 445 kts 229°
2026-05-04 23:38 39.39323 -74.99048 32123 ft 444 kts 229°
2026-05-04 23:38 39.37149 -75.01879 32515 ft 444 kts 228°
2026-05-04 23:38 39.34979 -75.04703 32870 ft 443 kts 228°
2026-05-04 23:39 39.32808 -75.07524 33228 ft 442 kts 228°
2026-05-04 23:39 39.30635 -75.10348 33555 ft 443 kts 228°
2026-05-04 23:39 39.28464 -75.13106 33871 ft 443 kts 226°
2026-05-04 23:39 39.26190 -75.15842 34233 ft 440 kts 225°
2026-05-04 23:40 39.23946 -75.18444 34556 ft 439 kts 224°
2026-05-04 23:40 39.21661 -75.21041 34842 ft 437 kts 224°
2026-05-04 23:40 39.19377 -75.23631 35132 ft 436 kts 224°
2026-05-04 23:40 39.17112 -75.26225 35447 ft 434 kts 225°
2026-05-04 23:41 39.14872 -75.28818 35744 ft 433 kts 225°
2026-05-04 23:41 39.12637 -75.31426 35891 ft 432 kts 225°
2026-05-04 23:41 39.08213 -75.36600 35923 ft 427 kts 225°
2026-05-04 23:42 39.03671 -75.41500 35911 ft 429 kts 215°
2026-05-04 23:42 38.98136 -75.44486 35923 ft 438 kts 195°
2026-05-04 23:43 38.92048 -75.45460 35928 ft 442 kts 189°
2026-05-04 23:43 38.85931 -75.46293 35939 ft 442 kts 189°
2026-05-04 23:44 38.79819 -75.47145 35948 ft 442 kts 190°
2026-05-04 23:44 38.73739 -75.47991 35952 ft 442 kts 189°
2026-05-04 23:45 38.67633 -75.48830 35953 ft 441 kts 189°
2026-05-04 23:45 38.61518 -75.49658 35963 ft 441 kts 189°
2026-05-04 23:46 38.55420 -75.50483 35968 ft 441 kts 189°
2026-05-04 23:46 38.51841 -75.50968 35970 ft 441 kts 189°
2026-05-04 23:47 38.46176 -75.51729 35971 ft 441 kts 189°
2026-05-04 23:47 38.40086 -75.52547 35966 ft 440 kts 190°
2026-05-04 23:48 38.34151 -75.54082 35969 ft 431 kts 205°
2026-05-04 23:48 38.28972 -75.57681 35974 ft 422 kts 218°
2026-05-04 23:49 38.24129 -75.61924 35968 ft 422 kts 218°
2026-05-04 23:49 38.19280 -75.66140 35966 ft 422 kts 218°
2026-05-04 23:50 38.14434 -75.70345 35979 ft 421 kts 218°
2026-05-04 23:50 38.09589 -75.74547 35984 ft 421 kts 218°
2026-05-04 23:51 38.04785 -75.78710 35985 ft 421 kts 218°
2026-05-04 23:51 37.99937 -75.82892 35957 ft 421 kts 218°
2026-05-04 23:52 37.95090 -75.87071 35965 ft 421 kts 218°
2026-05-04 23:52 37.90247 -75.91255 35971 ft 421 kts 218°
2026-05-04 23:53 37.85396 -75.95433 35969 ft 421 kts 218°
2026-05-04 23:53 37.80571 -75.99574 35951 ft 421 kts 218°
2026-05-04 23:54 37.75727 -76.03716 35981 ft 419 kts 218°
2026-05-04 23:54 37.70902 -76.07844 35994 ft 418 kts 218°
2026-05-04 23:55 37.66089 -76.11967 35995 ft 417 kts 218°
2026-05-04 23:56 37.58457 -76.17298 35998 ft 427 kts 201°
2026-05-04 23:56 37.52670 -76.19144 35987 ft 429 kts 199°
2026-05-04 23:57 37.46880 -76.20996 35974 ft 429 kts 199°
2026-05-04 23:57 37.41079 -76.22863 35966 ft 430 kts 199°
2026-05-04 23:58 37.35279 -76.24719 35975 ft 430 kts 200°
2026-05-04 23:58 37.30234 -76.26328 35994 ft 428 kts 200°
2026-05-04 23:59 37.24465 -76.28156 35990 ft 427 kts 200°
2026-05-04 23:59 37.18746 -76.29970 35987 ft 426 kts 200°
2026-05-05 00:00 37.12997 -76.31782 35964 ft 425 kts 200°
2026-05-05 00:00 37.07284 -76.33580 35984 ft 423 kts 201°
2026-05-05 00:01 37.01576 -76.35392 35995 ft 422 kts 200°
2026-05-05 00:01 36.95879 -76.37190 36029 ft 421 kts 200°
2026-05-05 00:02 36.90189 -76.38985 35999 ft 420 kts 200°
2026-05-05 00:02 36.84526 -76.40769 36027 ft 419 kts 200°
2026-05-05 00:03 36.78867 -76.42542 36033 ft 418 kts 200°
2026-05-05 00:03 36.73228 -76.44301 36031 ft 417 kts 200°
2026-05-05 00:04 36.67628 -76.46051 35997 ft 417 kts 200°
2026-05-05 00:04 36.62007 -76.47820 36021 ft 416 kts 200°
2026-05-05 00:05 36.56378 -76.49577 36036 ft 416 kts 200°
2026-05-05 00:05 36.50755 -76.51323 36043 ft 417 kts 200°
2026-05-05 00:06 36.45117 -76.53080 35982 ft 418 kts 200°
2026-05-05 00:06 36.39472 -76.54835 36007 ft 418 kts 200°
2026-05-05 00:07 36.33830 -76.56584 36040 ft 418 kts 200°
2026-05-05 00:07 36.28190 -76.58327 36048 ft 417 kts 200°
2026-05-05 00:08 36.22545 -76.60072 36042 ft 417 kts 200°
2026-05-05 00:08 36.16939 -76.61802 36053 ft 417 kts 200°
2026-05-05 00:09 36.11311 -76.63535 36063 ft 417 kts 200°
2026-05-05 00:09 36.05665 -76.65270 36060 ft 417 kts 200°
2026-05-05 00:10 36.00027 -76.67005 36047 ft 417 kts 200°
2026-05-05 00:10 35.94383 -76.68736 36035 ft 418 kts 201°
2026-05-05 00:11 35.88927 -76.70917 36042 ft 409 kts 213°
2026-05-05 00:11 35.83834 -76.74063 36038 ft 410 kts 212°
2026-05-05 00:12 35.78719 -76.77179 36045 ft 410 kts 212°
2026-05-05 00:12 35.74458 -76.79763 36024 ft 411 kts 212°
2026-05-05 00:13 35.68487 -76.83389 36044 ft 412 kts 212°
2026-05-05 00:13 35.64211 -76.85987 36053 ft 412 kts 212°
2026-05-05 00:14 35.59068 -76.89108 36072 ft 412 kts 212°
2026-05-05 00:14 35.53919 -76.92245 36079 ft 412 kts 213°
2026-05-05 00:15 35.48788 -76.95398 36047 ft 412 kts 212°
2026-05-05 00:15 35.43658 -76.98550 36060 ft 412 kts 212°
2026-05-05 00:16 35.38539 -77.01689 36068 ft 412 kts 212°
2026-05-05 00:16 35.33407 -77.04821 36066 ft 412 kts 212°
2026-05-05 00:17 35.28273 -77.07945 36063 ft 412 kts 212°
2026-05-05 00:17 35.23180 -77.11052 36074 ft 412 kts 212°
2026-05-05 00:18 35.18046 -77.14170 36080 ft 412 kts 212°
2026-05-05 00:18 35.12910 -77.17297 36101 ft 412 kts 212°
2026-05-05 00:19 35.07779 -77.20415 36102 ft 412 kts 212°
2026-05-05 00:19 35.02646 -77.23513 36108 ft 412 kts 212°
2026-05-05 00:20 34.97535 -77.26595 36091 ft 412 kts 212°
2026-05-05 00:20 34.92360 -77.29719 36097 ft 413 kts 212°
2026-05-05 00:21 34.87212 -77.32834 36105 ft 413 kts 212°
2026-05-05 00:21 34.82099 -77.35915 36075 ft 413 kts 212°
2026-05-05 00:22 34.76939 -77.39013 36095 ft 413 kts 212°
2026-05-05 00:22 34.71795 -77.42098 36106 ft 412 kts 212°
2026-05-05 00:23 34.66656 -77.45184 36110 ft 412 kts 212°
2026-05-05 00:23 34.61512 -77.48274 36111 ft 412 kts 212°
2026-05-05 00:24 34.56366 -77.51351 36103 ft 412 kts 212°
2026-05-05 00:24 34.51093 -77.54128 36105 ft 419 kts 201°
2026-05-05 00:25 34.45349 -77.55488 36106 ft 423 kts 197°
2026-05-05 00:25 34.39543 -77.56762 36108 ft 423 kts 197°
2026-05-05 00:26 34.33780 -77.58040 36080 ft 423 kts 197°
2026-05-05 00:26 34.27986 -77.59324 36104 ft 423 kts 197°
2026-05-05 00:27 34.22186 -77.60604 36110 ft 424 kts 197°
2026-05-05 00:27 34.16381 -77.61879 36112 ft 424 kts 197°
2026-05-05 00:28 34.10608 -77.63146 36091 ft 424 kts 197°
2026-05-05 00:28 34.04795 -77.64415 36105 ft 424 kts 197°
2026-05-05 00:29 33.98988 -77.65678 36121 ft 424 kts 197°
2026-05-05 00:29 33.93183 -77.66943 36123 ft 424 kts 197°
2026-05-05 00:30 33.87387 -77.68219 36123 ft 423 kts 197°
2026-05-05 00:30 33.81586 -77.69487 36109 ft 423 kts 197°
2026-05-05 00:31 33.75799 -77.70744 36119 ft 422 kts 197°
2026-05-05 00:31 33.70008 -77.71999 36125 ft 422 kts 197°
2026-05-05 00:32 33.64389 -77.73674 36123 ft 417 kts 202°
2026-05-05 00:32 33.58785 -77.75515 36100 ft 417 kts 202°
2026-05-05 00:33 33.53190 -77.77347 36124 ft 416 kts 202°
2026-05-05 00:33 33.47599 -77.79169 36135 ft 416 kts 202°
2026-05-05 00:34 33.42024 -77.80989 36138 ft 415 kts 202°
2026-05-05 00:34 33.36445 -77.82793 36132 ft 415 kts 202°
2026-05-05 00:35 33.30876 -77.84607 36114 ft 414 kts 202°
2026-05-05 00:35 33.25306 -77.86409 36123 ft 414 kts 202°
2026-05-05 00:36 33.19782 -77.88195 36127 ft 414 kts 202°
2026-05-05 00:36 33.14228 -77.89993 36128 ft 413 kts 202°
2026-05-05 00:37 33.08677 -77.91794 36100 ft 413 kts 202°
2026-05-05 00:37 33.03139 -77.93582 36124 ft 412 kts 202°
2026-05-05 00:38 32.97632 -77.95442 36136 ft 410 kts 203°
2026-05-05 00:38 32.92156 -77.97347 36129 ft 410 kts 203°
2026-05-05 00:39 32.86676 -77.99247 36123 ft 411 kts 202°
2026-05-05 00:39 32.81182 -78.01122 36119 ft 411 kts 202°
2026-05-05 00:40 32.75669 -78.03001 36114 ft 411 kts 202°
2026-05-05 00:40 32.70199 -78.04860 36114 ft 412 kts 202°
2026-05-05 00:41 32.64651 -78.06736 36116 ft 412 kts 202°
2026-05-05 00:41 32.59178 -78.08598 36119 ft 412 kts 202°
2026-05-05 00:42 32.53670 -78.10469 36117 ft 411 kts 203°
2026-05-05 00:42 32.48167 -78.12326 36132 ft 410 kts 203°
2026-05-05 00:43 32.42689 -78.14176 36138 ft 409 kts 203°
2026-05-05 00:43 32.37211 -78.16022 36137 ft 409 kts 203°
2026-05-05 00:44 32.31738 -78.17874 36120 ft 408 kts 203°
2026-05-05 00:44 32.26288 -78.19712 36141 ft 407 kts 203°
2026-05-05 00:45 32.20853 -78.21542 36144 ft 405 kts 203°
2026-05-05 00:45 32.15433 -78.23372 36144 ft 405 kts 203°
2026-05-05 00:46 32.10014 -78.25189 36142 ft 405 kts 203°
2026-05-05 00:46 32.04592 -78.27013 36104 ft 404 kts 204°
2026-05-05 00:47 31.99223 -78.28802 36137 ft 403 kts 204°
2026-05-05 00:47 31.93812 -78.30597 36145 ft 401 kts 204°
2026-05-05 00:48 31.88482 -78.32377 36146 ft 400 kts 204°
2026-05-05 00:48 31.83131 -78.34174 36143 ft 400 kts 204°
2026-05-05 00:49 31.77783 -78.35955 36115 ft 399 kts 204°
2026-05-05 00:49 31.72407 -78.37745 36125 ft 399 kts 204°
2026-05-05 00:50 31.67102 -78.39512 36133 ft 398 kts 204°
2026-05-05 00:50 31.61763 -78.41285 36133 ft 398 kts 204°
2026-05-05 00:51 31.56435 -78.43052 36131 ft 398 kts 204°
2026-05-05 00:51 31.51102 -78.44812 36093 ft 398 kts 204°
2026-05-05 00:52 31.45773 -78.46547 36114 ft 398 kts 204°
2026-05-05 00:52 31.40441 -78.48268 36124 ft 398 kts 204°
2026-05-05 00:53 31.35102 -78.49985 36126 ft 397 kts 204°
2026-05-05 00:53 31.29770 -78.51712 36129 ft 397 kts 204°
2026-05-05 00:54 31.24446 -78.53449 36095 ft 397 kts 204°
2026-05-05 00:54 31.19114 -78.55177 36107 ft 397 kts 204°
2026-05-05 00:55 31.13784 -78.56892 36124 ft 397 kts 204°
2026-05-05 00:55 31.08452 -78.58603 36119 ft 398 kts 204°
2026-05-05 00:56 31.03108 -78.60312 36123 ft 398 kts 204°
2026-05-05 00:56 30.98674 -78.61747 36093 ft 397 kts 204°
2026-05-05 00:57 30.93340 -78.63465 36103 ft 398 kts 204°
2026-05-05 00:57 30.88000 -78.65178 36106 ft 398 kts 204°
2026-05-05 00:58 30.82660 -78.66890 36109 ft 398 kts 204°
2026-05-05 00:58 30.77310 -78.68604 36123 ft 399 kts 204°
2026-05-05 00:59 30.71956 -78.70316 36092 ft 400 kts 204°
2026-05-05 00:59 30.66567 -78.72040 36097 ft 401 kts 204°
2026-05-05 01:00 30.61180 -78.73756 36102 ft 402 kts 204°
2026-05-05 01:00 30.55788 -78.75478 36111 ft 402 kts 204°
2026-05-05 01:01 30.50397 -78.77197 36120 ft 402 kts 204°
2026-05-05 01:01 30.44995 -78.78914 36086 ft 402 kts 203°
2026-05-05 01:02 30.39595 -78.80620 36098 ft 403 kts 203°
2026-05-05 01:02 30.34208 -78.82329 36101 ft 403 kts 203°
2026-05-05 01:03 30.28781 -78.84045 36102 ft 404 kts 203°
2026-05-05 01:03 30.23351 -78.85764 36105 ft 404 kts 203°
2026-05-05 01:04 30.17921 -78.87488 36112 ft 405 kts 203°
2026-05-05 01:04 30.09772 -78.90060 36112 ft 404 kts 203°
2026-05-05 01:05 30.04343 -78.91774 36114 ft 404 kts 203°
2026-05-05 01:05 29.98909 -78.93484 36114 ft 404 kts 203°
2026-05-05 01:06 29.93517 -78.95174 36113 ft 404 kts 203°
2026-05-05 01:06 29.88082 -78.96877 36075 ft 405 kts 203°
2026-05-05 01:07 29.82629 -78.98588 36086 ft 407 kts 203°
2026-05-05 01:07 29.77026 -78.99890 36092 ft 414 kts 197°
2026-05-05 01:08 29.71327 -79.00944 36100 ft 415 kts 197°
2026-05-05 01:08 29.65628 -79.01990 36077 ft 415 kts 197°
2026-05-05 01:09 29.59926 -79.03033 36078 ft 416 kts 197°
2026-05-05 01:09 29.54205 -79.04087 36106 ft 416 kts 197°
2026-05-05 01:10 29.48480 -79.05144 36108 ft 417 kts 197°
2026-05-05 01:10 29.42741 -79.06197 36110 ft 417 kts 197°
2026-05-05 01:11 29.36999 -79.07259 36077 ft 417 kts 197°
2026-05-05 01:11 29.31246 -79.08314 36105 ft 420 kts 197°
2026-05-05 01:12 29.25471 -79.09369 36109 ft 420 kts 197°
2026-05-05 01:12 29.19694 -79.10428 36111 ft 420 kts 197°
2026-05-05 01:13 29.13952 -79.11474 36113 ft 421 kts 197°
2026-05-05 01:13 29.08173 -79.12536 36068 ft 421 kts 197°
2026-05-05 01:14 29.02385 -79.13595 36072 ft 422 kts 197°
2026-05-05 01:14 28.96584 -79.14654 36086 ft 422 kts 197°
2026-05-05 01:15 28.90774 -79.15709 36092 ft 423 kts 197°
2026-05-05 01:15 28.84948 -79.16764 36099 ft 423 kts 197°
2026-05-05 01:16 28.79125 -79.17819 36073 ft 423 kts 197°
2026-05-05 01:16 28.73301 -79.18879 36082 ft 424 kts 197°
2026-05-05 01:17 28.67469 -79.19937 36089 ft 424 kts 197°
2026-05-05 01:17 28.61636 -79.20999 36096 ft 424 kts 197°
2026-05-05 01:18 28.55791 -79.22054 36100 ft 425 kts 197°
2026-05-05 01:18 28.49993 -79.23098 36076 ft 425 kts 197°
2026-05-05 01:19 28.44120 -79.24160 36081 ft 425 kts 197°
2026-05-05 01:19 28.38278 -79.25212 36089 ft 425 kts 197°
2026-05-05 01:20 28.32484 -79.26294 36087 ft 422 kts 200°
2026-05-05 01:20 28.26880 -79.28069 36092 ft 418 kts 204°
2026-05-05 01:21 28.21299 -79.29896 36057 ft 418 kts 204°
2026-05-05 01:21 28.15703 -79.31720 36071 ft 418 kts 204°
2026-05-05 01:22 28.10111 -79.33523 36072 ft 418 kts 204°
2026-05-05 01:22 28.04520 -79.35330 36086 ft 418 kts 204°
2026-05-05 01:23 28.01689 -79.36250 35863 ft 430 kts 204°
2026-05-05 01:23 27.98777 -79.37200 35623 ft 438 kts 203°
2026-05-05 01:23 27.95831 -79.38156 35380 ft 440 kts 203°
2026-05-05 01:23 27.92889 -79.39104 35108 ft 439 kts 203°
2026-05-05 01:24 27.89950 -79.40044 34867 ft 437 kts 203°
2026-05-05 01:24 27.87023 -79.40979 34631 ft 436 kts 203°
2026-05-05 01:24 27.84119 -79.41907 34399 ft 434 kts 203°
2026-05-05 01:24 27.81218 -79.42838 34157 ft 432 kts 203°
2026-05-05 01:25 27.78319 -79.43775 33900 ft 434 kts 203°
2026-05-05 01:25 27.75420 -79.44714 33635 ft 434 kts 203°
2026-05-05 01:25 27.72514 -79.45654 33373 ft 433 kts 203°
2026-05-05 01:25 27.69622 -79.46586 33113 ft 431 kts 203°
2026-05-05 01:26 27.66740 -79.47509 32850 ft 430 kts 203°
2026-05-05 01:26 27.63864 -79.48426 32569 ft 428 kts 203°
2026-05-05 01:26 27.61052 -79.49324 32083 ft 424 kts 203°
2026-05-05 01:26 27.58190 -79.50242 31517 ft 422 kts 203°
2026-05-05 01:27 27.55372 -79.51148 30961 ft 419 kts 203°
2026-05-05 01:27 27.52609 -79.52035 30425 ft 417 kts 203°
2026-05-05 01:27 27.49789 -79.52936 29830 ft 415 kts 203°
2026-05-05 01:27 27.47019 -79.53821 29281 ft 411 kts 203°
2026-05-05 01:28 27.44274 -79.54696 28745 ft 407 kts 203°
2026-05-05 01:28 27.41560 -79.55560 28215 ft 404 kts 203°
2026-05-05 01:28 27.38901 -79.56405 27701 ft 400 kts 202°
2026-05-05 01:28 27.36228 -79.57249 27191 ft 397 kts 202°
2026-05-05 01:29 27.33581 -79.58084 26690 ft 394 kts 202°
2026-05-05 01:29 27.30947 -79.58916 26191 ft 391 kts 202°
2026-05-05 01:29 27.28346 -79.59737 25687 ft 388 kts 202°
2026-05-05 01:29 27.25751 -79.60553 25204 ft 385 kts 202°
2026-05-05 01:30 27.23178 -79.61361 24697 ft 383 kts 202°
2026-05-05 01:30 27.20620 -79.62166 24211 ft 381 kts 202°
2026-05-05 01:30 27.18079 -79.62967 23725 ft 378 kts 202°
2026-05-05 01:30 27.15554 -79.63772 23185 ft 376 kts 202°
2026-05-05 01:31 27.13053 -79.64576 22708 ft 372 kts 202°
2026-05-05 01:31 27.10574 -79.65374 22227 ft 369 kts 202°
2026-05-05 01:31 27.08115 -79.66165 21736 ft 366 kts 202°
2026-05-05 01:31 27.05673 -79.66950 21284 ft 363 kts 202°
2026-05-05 01:32 27.03250 -79.67725 20827 ft 360 kts 202°
2026-05-05 01:32 27.00851 -79.68490 20367 ft 358 kts 202°
2026-05-05 01:32 26.98464 -79.69250 19901 ft 356 kts 202°
2026-05-05 01:32 26.96121 -79.69996 19455 ft 353 kts 202°
2026-05-05 01:33 26.93728 -79.70761 18997 ft 352 kts 202°
2026-05-05 01:33 26.91416 -79.71499 18559 ft 350 kts 201°
2026-05-05 01:33 26.89072 -79.72247 18071 ft 348 kts 201°
2026-05-05 01:33 26.86751 -79.72986 17611 ft 345 kts 201°
2026-05-05 01:34 26.84455 -79.73716 17169 ft 342 kts 201°
2026-05-05 01:34 26.82170 -79.74443 16703 ft 340 kts 200°
2026-05-05 01:34 26.79905 -79.75164 16252 ft 337 kts 200°
2026-05-05 01:34 26.77658 -79.75875 15836 ft 334 kts 200°
2026-05-05 01:35 26.75431 -79.76578 15414 ft 332 kts 199°
2026-05-05 01:35 26.73208 -79.77281 14979 ft 330 kts 199°
2026-05-05 01:35 26.71000 -79.77978 14547 ft 329 kts 199°
2026-05-05 01:35 26.68816 -79.78706 14137 ft 327 kts 200°
2026-05-05 01:36 26.66678 -79.79527 13705 ft 325 kts 202°
2026-05-05 01:36 26.64578 -79.80398 13453 ft 316 kts 203°
2026-05-05 01:36 26.62542 -79.81262 13082 ft 313 kts 203°
2026-05-05 01:36 26.60508 -79.82124 12660 ft 311 kts 203°
2026-05-05 01:37 26.58488 -79.82970 12267 ft 309 kts 202°
2026-05-05 01:37 26.56480 -79.83802 11864 ft 307 kts 202°
2026-05-05 01:37 26.54492 -79.84635 11530 ft 302 kts 204°
2026-05-05 01:37 26.52577 -79.85505 11335 ft 293 kts 205°
2026-05-05 01:38 26.50711 -79.86392 10985 ft 290 kts 205°
2026-05-05 01:38 26.48875 -79.87276 10439 ft 287 kts 206°
2026-05-05 01:38 26.47043 -79.88156 9887 ft 285 kts 205°
2026-05-05 01:38 26.45239 -79.89017 9410 ft 280 kts 205°
2026-05-05 01:39 26.44058 -79.89577 9168 ft 280 kts 205°
2026-05-05 01:39 26.42266 -79.90424 8803 ft 278 kts 205°
2026-05-05 01:39 26.40495 -79.91258 8448 ft 276 kts 204°
2026-05-05 01:39 26.38173 -79.92383 8042 ft 273 kts 209°
2026-05-05 01:40 26.36527 -79.93438 8006 ft 273 kts 211°
2026-05-05 01:40 26.35416 -79.94154 8018 ft 273 kts 211°
2026-05-05 01:40 26.33789 -79.95199 8015 ft 273 kts 211°
2026-05-05 01:40 26.32143 -79.96254 7912 ft 274 kts 211°
2026-05-05 01:41 26.30485 -79.97313 7480 ft 274 kts 211°
2026-05-05 01:41 26.28847 -79.98360 7308 ft 271 kts 211°
2026-05-05 01:41 26.27209 -79.99409 7142 ft 272 kts 210°
2026-05-05 01:41 26.25566 -80.00464 6977 ft 273 kts 211°
2026-05-05 01:42 26.23920 -80.01522 6813 ft 272 kts 210°
2026-05-05 01:42 26.22276 -80.02580 6644 ft 273 kts 210°
2026-05-05 01:42 26.20633 -80.03638 6478 ft 273 kts 211°
2026-05-05 01:42 26.19071 -80.04815 6303 ft 271 kts 223°
2026-05-05 01:43 26.17868 -80.06417 6132 ft 269 kts 239°
2026-05-05 01:43 26.17110 -80.08352 5952 ft 270 kts 252°
2026-05-05 01:43 26.16517 -80.10340 5775 ft 271 kts 251°
2026-05-05 01:43 26.15914 -80.12338 5578 ft 272 kts 251°
2026-05-05 01:44 26.15315 -80.14336 5410 ft 273 kts 253°
2026-05-05 01:44 26.15014 -80.16414 5239 ft 273 kts 269°
2026-05-05 01:44 26.15023 -80.18524 5073 ft 272 kts 270°
2026-05-05 01:44 26.15035 -80.20629 4906 ft 272 kts 270°
2026-05-05 01:45 26.15046 -80.22731 4709 ft 272 kts 270°
2026-05-05 01:45 26.15057 -80.24842 4325 ft 274 kts 270°
2026-05-05 01:45 26.15073 -80.26966 4037 ft 269 kts 270°
2026-05-05 01:45 26.15095 -80.28997 4003 ft 255 kts 270°
2026-05-05 01:46 26.15102 -80.30903 4016 ft 237 kts 269°
2026-05-05 01:46 26.15094 -80.32663 4007 ft 220 kts 269°
2026-05-05 01:46 26.15076 -80.34338 4009 ft 218 kts 269°
2026-05-05 01:46 26.14996 -80.36017 3868 ft 216 kts 256°
2026-05-05 01:47 26.14268 -80.37436 3777 ft 212 kts 219°
2026-05-05 01:47 26.13015 -80.38273 3687 ft 210 kts 203°
2026-05-05 01:47 26.11654 -80.38846 3572 ft 209 kts 194°
2026-05-05 01:47 26.10241 -80.39149 3454 ft 204 kts 175°
2026-05-05 01:48 26.08967 -80.38741 3377 ft 184 kts 145°
2026-05-05 01:48 26.08094 -80.37727 3340 ft 181 kts 117°
2026-05-05 01:48 26.07787 -80.36416 3298 ft 170 kts 91°
2026-05-05 01:48 26.07782 -80.35148 3165 ft 159 kts 90°
2026-05-05 01:49 26.07778 -80.33949 2991 ft 152 kts 90°
2026-05-05 01:49 26.07773 -80.32781 2808 ft 149 kts 90°
2026-05-05 01:49 26.07768 -80.31634 2621 ft 147 kts 90°
2026-05-05 01:49 26.07763 -80.30505 2454 ft 145 kts 90°
2026-05-05 01:50 26.07758 -80.29378 2250 ft 145 kts 90°
2026-05-05 01:50 26.07753 -80.28272 2060 ft 144 kts 90°
2026-05-05 01:50 26.07747 -80.27177 1873 ft 138 kts 89°
2026-05-05 01:50 26.07742 -80.26125 1689 ft 134 kts 89°
2026-05-05 01:51 26.07738 -80.25090 1513 ft 133 kts 89°
2026-05-05 01:51 26.07733 -80.24068 1341 ft 131 kts 89°
2026-05-05 01:51 26.07728 -80.23056 1167 ft 132 kts 89°
2026-05-05 01:51 26.07723 -80.22029 995 ft 133 kts 89°
2026-05-05 01:52 26.07718 -80.20999 827 ft 133 kts 89°
2026-05-05 01:52 26.07714 -80.19967 667 ft 133 kts 89°
2026-05-05 01:52 26.07707 -80.18927 491 ft 134 kts 88°
2026-05-05 01:52 26.07706 -80.17891 297 ft 134 kts 89°
2026-05-05 01:53 26.07698 -80.16863 122 ft 132 kts 89°
2026-05-05 01:53 26.07694 -80.15855 23 ft 125 kts 89°
2026-05-05 01:53 26.07687 -80.15076 16 ft 71 kts 91°
2026-05-05 01:53 26.07673 -80.14708 19 ft 30 kts 103°
2026-05-05 01:54 26.07602 -80.14550 18 ft 10 kts 128°
2026-05-05 01:54 26.07553 -80.14510 17 ft 7 kts 162°
2026-05-05 01:54 26.07503 -80.14502 16 ft 8 kts 167°
2026-05-05 01:54 26.07450 -80.14492 16 ft 8 kts 178°
2026-05-05 01:55 26.07397 -80.14490 16 ft 7 kts 178°
2026-05-05 01:55 26.07359 -80.14486 16 ft 2 kts 159°
2026-05-05 01:55 26.07348 -80.14464 16 ft 6 kts 110°
2026-05-05 01:55 26.07340 -80.14432 16 ft 1 kts 102°
2026-05-05 01:56 26.07339 -80.14425 16 ft 1 kts 102°
2026-05-05 01:56 26.07338 -80.14423 16 ft 0 kts 102°